Time,TemperatureF,DewpointF,PressureIn,WindDirection,WindDirectionDegrees,WindSpeedMPH,WindSpeedGustMPH,Humidity,HourlyPrecipIn,Conditions,Clouds,dailyrainin,SoftwareType,DateUTC
2013-02-22 00:02:00,17.0,13.0,30.40,ENE,73,0.0,11.0,84,0.00,,,0.00,,2013-02-22 05:02:00,
2013-02-22 00:12:00,17.0,13.0,30.40,ENE,73,0.0,11.0,84,0.00,,,0.00,,2013-02-22 05:12:00,
2013-02-22 00:22:00,17.0,13.0,30.40,NNW,348,3.0,9.0,84,0.00,,,0.00,,2013-02-22 05:22:00,
2013-02-22 00:32:00,17.0,13.0,30.40,SSW,203,0.0,6.0,85,0.00,,,0.00,,2013-02-22 05:32:00,
2013-02-22 00:42:00,17.0,13.0,30.40,SSW,203,0.0,6.0,85,0.00,,,0.00,,2013-02-22 05:42:00,
2013-02-22 00:52:00,17.0,13.0,30.40,ESE,122,2.0,8.0,85,0.00,,,0.00,,2013-02-22 05:52:00,
2013-02-22 01:02:00,17.0,13.0,30.40,NE,46,3.0,10.0,85,0.00,,,0.00,,2013-02-22 06:02:00,
2013-02-22 01:12:00,17.0,13.0,30.40,NE,46,3.0,10.0,85,0.00,,,0.00,,2013-02-22 06:12:00,
2013-02-22 01:22:00,17.0,14.0,30.40,NNE,27,1.0,9.0,86,0.00,,,0.00,,2013-02-22 06:22:00,
2013-02-22 01:32:00,17.0,14.0,30.40,North,11,2.0,8.0,86,0.00,,,0.00,,2013-02-22 06:32:00,
2013-02-22 01:42:00,17.0,14.0,30.40,North,11,2.0,8.0,86,0.00,,,0.00,,2013-02-22 06:42:00,
2013-02-22 01:52:00,17.0,14.0,30.41,North,356,0.0,8.0,86,0.00,,,0.00,,2013-02-22 06:52:00,
2013-02-22 02:01:00,17.0,14.0,30.42,North,349,1.0,7.0,86,0.00,,,0.00,,2013-02-22 07:01:00,
2013-02-22 02:11:00,17.0,14.0,30.42,North,349,1.0,7.0,86,0.00,,,0.00,,2013-02-22 07:11:00,
2013-02-22 02:22:00,17.0,14.0,30.44,SSE,165,0.0,1.0,87,0.00,,,0.00,,2013-02-22 07:22:00,
2013-02-22 02:32:00,17.0,14.0,30.43,NNE,27,0.0,5.0,87,0.00,,,0.00,,2013-02-22 07:32:00,
2013-02-22 02:42:00,17.0,14.0,30.43,NNE,27,0.0,5.0,87,0.00,,,0.00,,2013-02-22 07:42:00,
2013-02-22 02:52:00,17.0,14.0,30.43,North,11,3.0,5.0,87,0.00,,,0.00,,2013-02-22 07:52:00,
2013-02-22 03:01:00,17.0,14.0,30.42,NNE,18,1.0,5.0,87,0.00,,,0.00,,2013-02-22 08:01:00,
2013-02-22 03:11:00,17.0,14.0,30.42,NNE,18,1.0,5.0,87,0.00,,,0.00,,2013-02-22 08:11:00,
2013-02-22 03:21:00,17.0,14.0,30.40,ESE,110,1.0,6.0,88,0.00,,,0.00,,2013-02-22 08:21:00,
2013-02-22 03:32:00,17.0,14.0,30.40,SE,129,2.0,5.0,88,0.00,,,0.00,,2013-02-22 08:32:00,
2013-02-22 03:42:00,17.0,14.0,30.40,SE,129,2.0,5.0,88,0.00,,,0.00,,2013-02-22 08:42:00,
2013-02-22 03:52:00,17.0,14.0,30.40,WNW,295,0.0,6.0,89,0.00,,,0.00,,2013-02-22 08:52:00,
2013-02-22 04:03:00,17.0,14.0,30.40,SSE,153,0.0,7.0,89,0.00,,,0.00,,2013-02-22 09:03:00,
2013-02-22 04:11:00,17.0,14.0,30.39,SE,146,1.0,3.0,89,0.00,,,0.00,,2013-02-22 09:11:00,
2013-02-22 04:22:00,17.0,14.0,30.39,SE,146,1.0,3.0,89,0.00,,,0.00,,2013-02-22 09:22:00,
2013-02-22 04:32:00,17.0,14.0,30.38,NNE,28,0.0,2.0,89,0.00,,,0.00,,2013-02-22 09:32:00,
2013-02-22 04:42:00,17.0,14.0,30.38,NNE,28,0.0,2.0,89,0.00,,,0.00,,2013-02-22 09:42:00,
2013-02-22 04:51:00,17.0,14.0,30.40,NNW,328,0.0,1.0,89,0.00,,,0.00,,2013-02-22 09:51:00,
2013-02-22 05:01:00,17.0,15.0,30.40,SE,139,1.0,2.0,90,0.00,,,0.00,,2013-02-22 10:01:00,
2013-02-22 05:11:00,17.0,15.0,30.40,SE,139,1.0,2.0,90,0.00,,,0.00,,2013-02-22 10:11:00,
2013-02-22 05:21:00,17.0,14.0,30.40,South,170,0.0,1.0,89,0.00,,,0.00,,2013-02-22 10:21:00,
2013-02-22 05:32:00,17.0,14.0,30.40,SSE,158,0.0,1.0,89,0.00,,,0.00,,2013-02-22 10:32:00,
2013-02-22 05:42:00,17.0,14.0,30.40,SSE,158,0.0,1.0,89,0.00,,,0.00,,2013-02-22 10:42:00,
2013-02-22 05:52:00,17.0,15.0,30.41,SSE,158,0.0,0.0,90,0.00,,,0.00,,2013-02-22 10:52:00,
2013-02-22 06:01:00,17.0,15.0,30.41,SSE,158,0.0,0.0,90,0.00,,,0.00,,2013-02-22 11:01:00,
2013-02-22 06:11:00,17.0,15.0,30.41,SSE,158,0.0,0.0,90,0.00,,,0.00,,2013-02-22 11:11:00,
2013-02-22 06:22:00,17.0,15.0,30.42,SSE,167,0.0,0.0,90,0.00,,,0.00,,2013-02-22 11:22:00,
2013-02-22 06:32:00,17.0,15.0,30.41,ESE,122,0.0,1.0,91,0.00,,,0.00,,2013-02-22 11:32:00,
2013-02-22 06:42:00,17.0,15.0,30.41,ESE,122,0.0,1.0,91,0.00,,,0.00,,2013-02-22 11:42:00,
2013-02-22 06:52:00,17.0,15.0,30.41,ESE,122,0.0,0.0,91,0.00,,,0.00,,2013-02-22 11:52:00,
2013-02-22 07:02:00,17.0,15.0,30.40,East,98,0.0,1.0,91,0.00,,,0.00,,2013-02-22 12:02:00,
2013-02-22 07:11:00,17.0,15.0,30.40,East,98,0.0,1.0,91,0.00,,,0.00,,2013-02-22 12:11:00,
2013-02-22 07:22:00,17.0,15.0,30.40,East,98,0.0,1.0,91,0.00,,,0.00,,2013-02-22 12:22:00,
2013-02-22 07:32:00,17.0,15.0,30.40,SE,129,1.0,2.0,91,0.00,,,0.00,,2013-02-22 12:32:00,
2013-02-22 07:42:00,17.0,15.0,30.40,SE,129,1.0,2.0,91,0.00,,,0.00,,2013-02-22 12:42:00,
2013-02-22 07:52:00,17.0,15.0,30.39,SSE,164,0.0,2.0,90,0.00,,,0.00,,2013-02-22 12:52:00,
2013-02-22 08:02:00,18.0,16.0,30.39,SSW,199,1.0,4.0,90,0.00,,,0.00,,2013-02-22 13:02:00,
2013-02-22 08:11:00,18.0,16.0,30.39,SSW,199,1.0,4.0,90,0.00,,,0.00,,2013-02-22 13:11:00,
2013-02-22 08:22:00,18.0,15.0,30.38,South,171,0.0,2.0,89,0.00,,,0.00,,2013-02-22 13:22:00,
2013-02-22 08:32:00,18.0,15.0,30.37,SSW,201,1.0,5.0,88,0.00,,,0.00,,2013-02-22 13:32:00,
2013-02-22 08:42:00,18.0,15.0,30.37,SSW,201,1.0,5.0,88,0.00,,,0.00,,2013-02-22 13:42:00,
2013-02-22 08:52:00,19.0,16.0,30.37,SE,127,0.0,2.0,88,0.00,,,0.00,,2013-02-22 13:52:00,
2013-02-22 09:01:00,19.0,16.0,30.36,SSE,159,1.0,3.0,88,0.00,,,0.00,,2013-02-22 14:01:00,
2013-02-22 09:11:00,19.0,16.0,30.37,SSW,204,0.0,1.0,87,0.00,,,0.00,,2013-02-22 14:11:00,
2013-02-22 09:21:00,19.0,16.0,30.37,SSW,204,0.0,1.0,87,0.00,,,0.00,,2013-02-22 14:21:00,
2013-02-22 09:32:00,20.0,17.0,30.37,South,175,0.0,2.0,87,0.00,,,0.00,,2013-02-22 14:32:00,
2013-02-22 09:42:00,20.0,17.0,30.37,South,175,0.0,2.0,87,0.00,,,0.00,,2013-02-22 14:42:00,
2013-02-22 09:53:00,20.0,16.0,30.38,South,173,0.0,3.0,86,0.00,,,0.00,,2013-02-22 14:53:00,
2013-02-22 10:02:00,20.0,16.0,30.36,South,169,2.0,6.0,85,0.00,,,0.00,,2013-02-22 15:02:00,
2013-02-22 10:12:00,20.0,16.0,30.36,South,169,2.0,6.0,85,0.00,,,0.00,,2013-02-22 15:12:00,
2013-02-22 10:22:00,22.0,18.0,30.36,South,174,1.0,7.0,83,0.00,,,0.00,,2013-02-22 15:22:00,
2013-02-22 10:32:00,22.0,17.0,30.35,South,191,5.0,10.0,82,0.00,,,0.00,,2013-02-22 15:32:00,
2013-02-22 10:42:00,22.0,17.0,30.35,South,191,5.0,10.0,82,0.00,,,0.00,,2013-02-22 15:42:00,
2013-02-22 10:52:00,23.0,17.0,30.34,SE,136,9.0,16.0,79,0.00,,,0.00,,2013-02-22 15:52:00,
2013-02-22 11:02:00,23.0,17.0,30.33,SSE,160,7.0,19.0,78,0.00,,,0.00,,2013-02-22 16:02:00,
2013-02-22 11:12:00,23.0,17.0,30.33,SSE,160,7.0,19.0,78,0.00,,,0.00,,2013-02-22 16:12:00,
2013-02-22 11:22:00,25.0,19.0,30.32,SSW,200,9.0,19.0,76,0.00,,,0.00,,2013-02-22 16:22:00,
2013-02-22 11:32:00,26.0,19.0,30.31,South,174,9.0,16.0,74,0.00,,,0.00,,2013-02-22 16:32:00,
2013-02-22 11:42:00,26.0,19.0,30.31,South,174,9.0,16.0,74,0.00,,,0.00,,2013-02-22 16:42:00,
2013-02-22 11:52:00,26.0,19.0,30.31,SSE,162,8.0,18.0,73,0.00,,,0.00,,2013-02-22 16:52:00,
2013-02-22 12:01:00,26.0,18.0,30.30,SSW,195,8.0,18.0,72,0.00,,,0.00,,2013-02-22 17:01:00,
2013-02-22 12:11:00,26.0,18.0,30.30,SSW,195,8.0,18.0,72,0.00,,,0.00,,2013-02-22 17:11:00,
2013-02-22 12:22:00,25.0,17.0,30.29,SSE,167,11.0,21.0,72,0.00,,,0.00,,2013-02-22 17:22:00,
2013-02-22 12:32:00,25.0,18.0,30.28,SSE,158,9.0,21.0,74,0.00,,,0.00,,2013-02-22 17:32:00,
2013-02-22 12:42:00,25.0,18.0,30.28,SSE,158,9.0,21.0,74,0.00,,,0.00,,2013-02-22 17:42:00,
2013-02-22 12:52:00,25.0,18.0,30.28,South,179,11.0,24.0,74,0.00,,,0.00,,2013-02-22 17:52:00,
2013-02-22 13:02:00,25.0,18.0,30.28,SSW,198,11.0,19.0,73,0.00,,,0.00,,2013-02-22 18:02:00,
2013-02-22 13:12:00,25.0,18.0,30.28,SSW,198,11.0,19.0,73,0.00,,,0.00,,2013-02-22 18:12:00,
2013-02-22 13:22:00,26.0,19.0,30.27,South,169,9.0,20.0,73,0.00,,,0.00,,2013-02-22 18:22:00,
2013-02-22 13:32:00,26.0,18.0,30.27,South,190,11.0,17.0,72,0.00,,,0.00,,2013-02-22 18:32:00,
2013-02-22 13:42:00,26.0,18.0,30.27,South,190,11.0,17.0,72,0.00,,,0.00,,2013-02-22 18:42:00,
2013-02-22 13:52:00,26.0,19.0,30.26,South,181,12.0,19.0,76,0.00,,,0.00,,2013-02-22 18:52:00,
2013-02-22 14:01:00,25.0,19.0,30.26,South,188,13.0,22.0,79,0.00,,,0.00,,2013-02-22 19:01:00,
2013-02-22 14:11:00,25.0,20.0,30.25,South,181,10.0,21.0,81,0.00,,,0.00,,2013-02-22 19:11:00,
2013-02-22 14:21:00,25.0,20.0,30.25,South,181,10.0,21.0,81,0.00,,,0.00,,2013-02-22 19:21:00,
2013-02-22 14:31:00,25.0,20.0,30.24,South,169,10.0,18.0,82,0.00,,,0.00,,2013-02-22 19:31:00,
2013-02-22 14:41:00,25.0,20.0,30.24,South,169,10.0,18.0,82,0.00,,,0.00,,2013-02-22 19:41:00,
2013-02-22 14:52:00,25.0,21.0,30.24,South,187,9.0,14.0,84,0.00,,,0.00,,2013-02-22 19:52:00,
2013-02-22 15:01:00,24.0,21.0,30.24,South,178,10.0,16.0,87,0.00,,,0.00,,2013-02-22 20:01:00,
2013-02-22 15:11:00,24.0,21.0,30.24,South,178,10.0,16.0,87,0.00,,,0.00,,2013-02-22 20:11:00,
2013-02-22 15:21:00,25.0,22.0,30.23,South,189,12.0,19.0,87,0.00,,,0.00,,2013-02-22 20:21:00,
2013-02-22 15:32:00,25.0,21.0,30.23,South,176,10.0,18.0,86,0.00,,,0.00,,2013-02-22 20:32:00,
2013-02-22 15:42:00,25.0,21.0,30.23,South,176,10.0,18.0,86,0.00,,,0.00,,2013-02-22 20:42:00,
2013-02-22 15:52:00,25.0,21.0,30.23,South,180,11.0,18.0,85,0.00,,,0.00,,2013-02-22 20:52:00,
2013-02-22 16:02:00,25.0,21.0,30.23,South,174,11.0,21.0,85,0.00,,,0.00,,2013-02-22 21:02:00,
2013-02-22 16:11:00,25.0,21.0,30.23,South,174,11.0,21.0,85,0.00,,,0.00,,2013-02-22 21:11:00,
2013-02-22 16:21:00,25.0,21.0,30.23,SSE,155,10.0,18.0,86,0.00,,,0.00,,2013-02-22 21:21:00,
2013-02-22 16:32:00,25.0,21.0,30.23,South,175,9.0,17.0,86,0.00,,,0.00,,2013-02-22 21:32:00,
2013-02-22 16:42:00,25.0,21.0,30.23,South,175,9.0,17.0,86,0.00,,,0.00,,2013-02-22 21:42:00,
2013-02-22 16:52:00,25.0,21.0,30.23,South,179,11.0,18.0,86,0.00,,,0.00,,2013-02-22 21:52:00,
2013-02-22 17:01:00,25.0,21.0,30.22,SSW,193,14.0,23.0,86,0.00,,,0.00,,2013-02-22 22:01:00,
2013-02-22 17:11:00,25.0,21.0,30.22,SSW,193,14.0,23.0,86,0.00,,,0.00,,2013-02-22 22:11:00,
2013-02-22 17:21:00,25.0,21.0,30.23,SSE,148,14.0,21.0,85,0.00,,,0.00,,2013-02-22 22:21:00,
2013-02-22 17:32:00,25.0,21.0,30.22,SSE,163,10.0,20.0,85,0.00,,,0.00,,2013-02-22 22:32:00,
2013-02-22 17:42:00,25.0,21.0,30.22,SSE,163,10.0,20.0,85,0.00,,,0.00,,2013-02-22 22:42:00,
2013-02-22 17:52:00,25.0,21.0,30.22,South,181,10.0,21.0,85,0.00,,,0.00,,2013-02-22 22:52:00,
2013-02-22 18:01:00,25.0,21.0,30.22,SSW,193,11.0,25.0,85,0.00,,,0.00,,2013-02-22 23:01:00,
2013-02-22 18:11:00,25.0,21.0,30.22,SSW,193,11.0,25.0,85,0.00,,,0.00,,2013-02-22 23:11:00,
2013-02-22 18:21:00,25.0,21.0,30.22,South,176,13.0,23.0,85,0.00,,,0.00,,2013-02-22 23:21:00,
2013-02-22 18:32:00,25.0,21.0,30.22,SSW,194,12.0,19.0,85,0.00,,,0.00,,2013-02-22 23:32:00,
2013-02-22 18:42:00,25.0,21.0,30.22,SSW,194,12.0,19.0,85,0.00,,,0.00,,2013-02-22 23:42:00,
2013-02-22 18:52:00,25.0,21.0,30.23,SSE,147,10.0,21.0,85,0.00,,,0.00,,2013-02-22 23:52:00,
2013-02-22 19:02:00,25.0,21.0,30.23,SSE,156,9.0,19.0,85,0.00,,,0.00,,2013-02-23 00:02:00,
2013-02-22 19:11:00,25.0,21.0,30.23,SSE,156,9.0,19.0,85,0.00,,,0.00,,2013-02-23 00:11:00,
2013-02-22 19:21:00,25.0,21.0,30.23,South,190,13.0,25.0,85,0.00,,,0.00,,2013-02-23 00:21:00,
2013-02-22 19:32:00,25.0,21.0,30.23,SSW,210,11.0,19.0,85,0.00,,,0.00,,2013-02-23 00:32:00,
2013-02-22 19:42:00,25.0,21.0,30.23,SSW,210,11.0,19.0,85,0.00,,,0.00,,2013-02-23 00:42:00,
2013-02-22 19:52:00,25.0,21.0,30.23,SSE,162,9.0,21.0,86,0.00,,,0.00,,2013-02-23 00:52:00,
2013-02-22 20:01:00,25.0,21.0,30.22,SSE,150,11.0,22.0,86,0.00,,,0.00,,2013-02-23 01:01:00,
2013-02-22 20:11:00,25.0,21.0,30.22,SSE,150,11.0,22.0,86,0.00,,,0.00,,2013-02-23 01:11:00,
2013-02-22 20:21:00,25.0,21.0,30.22,SSE,158,12.0,20.0,86,0.00,,,0.00,,2013-02-23 01:21:00,
2013-02-22 20:32:00,25.0,22.0,30.22,SE,145,9.0,20.0,87,0.00,,,0.00,,2013-02-23 01:32:00,
2013-02-22 20:42:00,25.0,22.0,30.22,SE,145,9.0,20.0,87,0.00,,,0.00,,2013-02-23 01:42:00,
2013-02-22 20:52:00,25.0,22.0,30.22,SSE,151,12.0,22.0,87,0.00,,,0.00,,2013-02-23 01:52:00,
2013-02-22 21:01:00,25.0,21.0,30.22,SSE,151,12.0,21.0,86,0.00,,,0.00,,2013-02-23 02:01:00,
2013-02-22 21:11:00,25.0,21.0,30.22,SSE,165,11.0,21.0,86,0.00,,,0.00,,2013-02-23 02:11:00,
2013-02-22 21:21:00,25.0,21.0,30.22,SSE,165,11.0,21.0,86,0.00,,,0.00,,2013-02-23 02:21:00,
2013-02-22 21:32:00,25.0,21.0,30.22,SE,143,11.0,20.0,86,0.00,,,0.00,,2013-02-23 02:32:00,
2013-02-22 21:42:00,25.0,21.0,30.22,SE,143,11.0,20.0,86,0.00,,,0.00,,2013-02-23 02:42:00,
2013-02-22 21:52:00,25.0,22.0,30.23,South,190,9.0,17.0,87,0.00,,,0.00,,2013-02-23 02:52:00,
2013-02-22 22:02:00,25.0,21.0,30.23,SSW,203,13.0,19.0,86,0.00,,,0.00,,2013-02-23 03:02:00,
2013-02-22 22:11:00,25.0,21.0,30.23,SSW,203,13.0,19.0,86,0.00,,,0.00,,2013-02-23 03:11:00,
2013-02-22 22:21:00,25.0,21.0,30.23,SSE,162,10.0,17.0,86,0.00,,,0.00,,2013-02-23 03:21:00,
2013-02-22 22:32:00,25.0,21.0,30.23,South,181,9.0,18.0,86,0.00,,,0.00,,2013-02-23 03:32:00,
2013-02-22 22:42:00,25.0,21.0,30.23,South,181,9.0,18.0,86,0.00,,,0.00,,2013-02-23 03:42:00,
2013-02-22 22:52:00,25.0,21.0,30.22,South,169,8.0,20.0,86,0.00,,,0.00,,2013-02-23 03:52:00,
2013-02-22 23:01:00,25.0,21.0,30.20,SSE,150,11.0,21.0,86,0.00,,,0.00,,2013-02-23 04:01:00,
2013-02-22 23:11:00,25.0,21.0,30.20,SSE,150,11.0,21.0,86,0.00,,,0.00,,2013-02-23 04:11:00,
2013-02-22 23:21:00,25.0,21.0,30.20,South,188,10.0,22.0,86,0.00,,,0.00,,2013-02-23 04:21:00,
2013-02-22 23:32:00,25.0,21.0,30.21,SSE,155,7.0,17.0,86,0.00,,,0.00,,2013-02-23 04:32:00,
2013-02-22 23:42:00,25.0,21.0,30.21,SSE,155,7.0,17.0,86,0.00,,,0.00,,2013-02-23 04:42:00,
2013-02-22 23:52:00,26.0,22.0,30.19,ESE,122,11.0,21.0,86,0.00,,,0.00,,2013-02-23 04:52:00,